User: anonymous   Login
Location: Knowlton
(51.2333°N, 1.2667°E)
Time: 22:44:30
(UTC+00:00)
Language:

AIST 2D - Orbit

View from above orbital plane
View from above orbital plane
View from above satellite
View from above satellite

Ground track
Ground track

The orbit data is extracted from the following two-line orbital elements,

1 41465U 16026B   21335.48622979  .00004436  00000-0  12261-3 0  9998
2 41465  97.0817 213.7331 0011953 124.2467 357.2596 15.37466503313081
Epoch (UTC): 01 December 2021 11:40:10
Eccentricity: 0.0011953
inclination: 97.0817°
perigee height: 445 km
apogee height: 462 km
right ascension of ascending node: 213.7331°
argument of perigee: 124.2467°
revolutions per day: 15.37466503
mean anomaly at epoch: 357.2596°
orbit number at epoch: 31308

The dashed part of the orbit path shows where the satellite is in the earth's shadow,  

DLR